Location: Unspecified
(0.0000°N, 0.0000°E)
Time: 13:59:39
(UTC+00:00)

S-56A Canister/Altair - Pass Details

Date: 18 April 2019
Orbit: 633 x 2499 km, 38.9° (Epoch: 23 August)

Event Time Altitude Azimuth Distance (km) Brightness Sun altitude
Rises 19:40:50 0° 323° (NW) 3,428 11.6 -24.9°
Reaches altitude 10° 19:43:46 10° 331° (NNW) 2,297 10.5 -25.6°
Enters shadow 19:47:18 32° 7° (N) 1,162 8.4 -26.5°
